OBJECT D, 51827

Orbit data source: Space-Track

You're viewing an Uncataloged Satellite

Recently launched and/or uncataloged satellites may have evolving metadata. Metadata may include but not limited to: Owner, Maufacturer, Bus, Motor, and Mission.

OBJECT D, 51827 is a satellite owned by Sanya RI (CN) in SSO that was launched on Sun, 27 Feb 2022 UTC via a CHANG ZHENG 8 launch vehicle from the Wenchang Satellite Launch Center (WSC). Unknown objects in Earth's orbit typically refer to objects detected orbiting the Earth but have not yet been identified or cataloged. These objects could be anything from previously untracked satellites, spent rocket stages, debris from satellite collisions, or even natural meteoroids temporarily captured by Earth's gravity.

Loading next visibility...
OBJECT D details
Identifier
51827, 2022-019D
Orbit
SSO
Last TLE update7 hours ago
Origin
Flag of CNSanya RI (CN / PRC)
ManufacturerWeina
MissionNon-operational Civil Imaging
Bus & MotorMN50?, Unknown motor
Mass62 kg wet, 62 kg dry
Launch date (UTC)
2022-02-27 (3 years ago)
Launch vehicle
CHANG ZHENG 8
Launch site
Wenchang Satellite Launch Center (WSC)
Object typeUnknown
Shape & HBRBox + 2 Pan, 2 m
Radar Cross Section1.775 m², Medium (>0.1 m² and < 1m²)

Expand to show TLE details & history

TLE from 7 hours ago
0 OBJECT D
1 51827U 22019D   25014.95401853  .00019723  00000-0  63579-3 0  9999
2 51827  97.4123  91.5687 0010356 205.4875 154.5857 15.32159345159551
Epoch: 2025-01-14T22:53Z
Definitive object data (Epoch: 2025-01-14T22:53:47.2Z)
Latitude-0.00009°
Longitude-6.53126°
Altitude478.886 km
Speed7.623 km/s
True Right ascension06h 06m 16s
True Declination0° 00' 00"
Sunlit
Object was in full shadow at TLE epoch
Visualization TLE readout
Latitude-74.72424°
Longitude145.50109°
Altitude492.197 km
Speed7.62 km/s
Apparent Right ascension18h 13m 46s
Apparent Declination-59° 06' 05"
Sunlit
Object is in daylight
Visualization observer readout
Local Sidereal Time06:56:16
Azimuth164.183° S
Elevation-69.67°
Doppler factor1
Orbital elements
Apogee altitude473.409 km
Perigee altitude459.233 km
Semi-major axis6,844.458 km
Eccentricity0.0010356
Inclination97.4123°
RAAN91.5687°
Arg. of periapsis205.4875°
True anomaly154.63657°
Mean anomaly154.5857°
Eccentric anomaly154.61114°
Mean motion3.83296 °/min
BSTAR0.00063579
Orbital period93.92 mins
Loading maneuver chart data...
Loading historical data...
Loading historical data...
Loading historical data...
Loading historical data...
Loading historical data...
Loading historical data...
Loading historical data...

OBJECT D Visibility forecast

Observer location: undefined°, undefined

Span
Click to sort rows by Start time (UTC) header in descending order
Start Az.
Max El. time (UTC)
Max El. Az.
Max El.
End time (UTC)
End Az.
4 mins2025-01-15 18:16:55.470Z338.518° N2025-01-15 18:18:55.470Z267.661° W30.573°2025-01-15 18:20:55.470Z223.593° SW
5 mins2025-01-16 04:48:55.470Z151.47° SSE2025-01-16 04:50:55.470Z107.594° ESE39.596°2025-01-16 04:53:55.470Z358.455° N
|